Chillicothe, MO

10:53 AM CST on December 11, 2019 (GMT -0600)
Chillicothe

Weather History for KCDJ - October, 2019

Change the Weather History Date:

Wednesday, October 2, 2019

  Actual Average (WUND) Record (WUND)
Temperature  
Mean Temperature 76 °F -  
Max Temperature 84 °F - - (-1)
Min Temperature 68 °F - - (-1)
Cooling Degree Days 11    
Growing Degree Days 26 (Base 50)    
Moisture  
Dew Point 71 °F    
Average Humidity 88    
Maximum Humidity 100    
Minimum Humidity 69    
Precipitation  
Precipitation 1.07 in - - ()
Sea Level Pressure  
Sea Level Pressure 29.87 in    
Wind  
Wind Speed 4 mph (NNW)    
Max Wind Speed 7 mph    
Max Gust Speed -    
Averages and records for this station are not official NWS values.
T = Trace of Precipitation, MM = Missing Value Source: NWS Daily Summary

Daily Weather History Graph

Daily Weather History Graph

Search for Another Location

Airport or City:

Astronomy

Oct. 02, 2019 Rise Set
Actual Time 7:11 AM CDT 6:55 PM CDT
Civil Twilight 6:44 AM CDT 7:22 PM CDT
Nautical Twilight 6:13 AM CDT 7:53 PM CDT
Astronomical Twilight 5:41 AM CDT 8:25 PM CDT
Moon 11:37 AM CDT (10/2) 9:50 PM CDT (10/2)
Length of Visible Light 12h 37m
Length of Day
11h 44m
Waxing Crescent, 20% of the Moon is Illuminated
Oct 2
Waxing Crescent
Oct 5
First Quarter
Oct 13
Full
Oct 21
Last Quarter
Oct 27
New

Hourly Weather History & Observations

Time (CDT) Temp. Heat Index Dew Point Humidity Pressure Visibility Wind Dir Wind Speed Gust Speed Precip Events Conditions
12:52 AM 78.1 °F - 68.0 °F 71% 29.83 in - Variable 5.8 mph - N/A   Unknown
1:52 AM 77.0 °F - 69.1 °F 76% 29.85 in - Variable 3.5 mph - N/A   Unknown
2:52 AM 73.9 °F - 71.1 °F 91% 29.87 in - Variable 4.6 mph - N/A   Unknown
3:52 AM 73.0 °F - 71.1 °F 93% 29.87 in - Variable 3.5 mph - N/A   Unknown
4:52 AM 72.0 °F - 71.1 °F 97% 29.89 in - SSW 3.5 mph - 0.02 in   Unknown
5:52 AM 72.0 °F - 72.0 °F 100% 29.90 in - Calm Calm - 0.04 in   Unknown
6:52 AM 72.0 °F - 72.0 °F 100% 29.91 in - Calm Calm - 0.08 in   Unknown
7:52 AM 71.1 °F - 70.0 °F 96% 29.91 in - NNW 4.6 mph - 0.05 in   Unknown
8:52 AM 70.0 °F - 69.1 °F 97% 29.91 in - North 3.5 mph - 0.01 in   Unknown
9:52 AM 72.0 °F - 69.1 °F 91% 29.91 in - Calm Calm - N/A   Unknown
10:52 AM 73.0 °F - 70.0 °F 90% 29.90 in - ESE 3.5 mph - N/A   Unknown
11:52 AM 75.9 °F - 73.0 °F 91% 29.88 in - ESE 3.5 mph - N/A   Unknown
12:52 PM 80.1 °F 84.2 °F 73.0 °F 79% 29.88 in - Variable 3.5 mph - N/A   Unknown
1:52 PM 81.0 °F 85.2 °F 72.0 °F 74% 29.86 in - Variable 5.8 mph - N/A   Unknown
2:52 PM 82.9 °F 88.0 °F 72.0 °F 69% 29.84 in - SSW 6.9 mph - N/A   Unknown
3:52 PM 82.9 °F 88.0 °F 72.0 °F 69% 29.83 in - Calm Calm - N/A   Unknown
4:52 PM 81.0 °F 86.7 °F 75.0 °F 82% 29.83 in - North 3.5 mph - N/A   Unknown
5:52 PM 79.0 °F - 75.0 °F 88% 29.80 in - North 3.5 mph - N/A   Unknown
6:52 PM 75.0 °F - 73.9 °F 96% 29.84 in - Calm Calm - 0.60 in   Unknown
7:52 PM 73.0 °F - 73.0 °F 100% 29.86 in - NNW 6.9 mph - 0.10 in   Unknown
8:52 PM 71.1 °F - 71.1 °F 100% 29.89 in - Calm Calm - 0.14 in   Unknown
9:52 PM 68.0 °F - 66.9 °F 96% 29.93 in - NW 6.9 mph - 0.03 in   Unknown